Current weather by "City, St" or "zip code"  
 
Advertise Here

Current Conditions: Two Harbors, MN

Fair


66.0 F

Last Updated on Aug 4 2020, 4:55 pm CDT
Humidity: 46%
Wind Speed: E 3.5 mph
Barometer 30.11 in
Dewpoint: 44.6 F
Visibility: 10.00 mi
Precip: --
Heat Index: NA
Wind Chill: NA
Current conditions at:

Two Harbors, MN (KTWM)

Lat: 47.05 Lon: 91.75

Local Radar Image active severe weather and emergency alerts image image weather storm and storm spotter reports image weather observation monitoring service image
Local
Radar
Active
Alerts
Storm Reports Obs
Monitoring

Sign-up For Email & Text Message Weather Alert Notification Services


Advertise Here

Observation History for Two Harbors, MN


Time Wind
(mph)
Vis
(mi)
Weather Precip (in) Temperature (F) Relative
Humidity
Wind
Chill
(F)
Heat
Index
(F)
Pressure
Air Dwpt altimeter
(in)
sea level
(mb)
Rmks
4:55 pm CDT E 3.5 10.00 Fair -- 66.0 44.6 46% NA NA 30.11 M
3:55 pm CDT SE 4.6 10.00 Fair -- 66.0 41.0 40% NA NA 30.12 M
2:55 pm CDT E 6.9 10.00 Fair -- 66.0 42.8 43% NA NA 30.14 M
1:55 pm CDT E 10.4 10.00 Fair -- 66.0 42.8 43% NA NA 30.15 M
12:55 pm CDT SE 4.6 10.00 Fair -- 66.0 44.6 46% NA NA 30.16 M
11:55 am CDT E 8.1 10.00 Partly Cloudy -- 64.0 46.4 52% NA NA 30.16 M
10:55 am CDT E 8.1 10.00 Fair -- 64.0 48.2 56% NA NA 30.15 M
9:55 am CDT E 8.1 10.00 Partly Cloudy -- 63.0 48.2 60% 63 NA 30.16 M
8:55 am CDT E 5.8 10.00 Partly Cloudy -- 61.0 50.0 68% 61 NA 30.16 M
7:55 am CDT NE 4.6 10.00 Fair -- 57.0 50.0 77% 57 NA 30.16 M
6:55 am CDT N 4.6 10.00 Fair -- 54.0 46.4 77% 53 NA 30.16 M
5:55 am CDT N 4.6 10.00 Fair -- 52.0 44.6 77% 51 NA 30.17 M
4:55 am CDT N 3.5 10.00 Fair -- 52.0 46.4 82% NA NA 30.16 M
3:55 am CDT N 3.5 10.00 Partly Cloudy -- 52.0 46.4 82% NA NA 30.15 M
2:55 am CDT N 4.6 10.00 Partly Cloudy -- 54.0 48.2 82% 53 NA 30.16 M
1:55 am CDT N 0.0 10.00 Partly Cloudy -- 54.0 48.2 82% NA NA 30.17 M
12:55 am CDT NE 4.6 10.00 Fair -- 55.0 48.2 77% 54 NA 30.17 M
11:55 pm CDT NE 4.6 10.00 Partly Cloudy -- 57.0 50.0 77% 57 NA 30.17 M
10:55 pm CDT NE 5.8 10.00 Partly Cloudy -- 59.0 51.8 77% 58 NA 30.16 M
9:55 pm CDT NE 4.6 10.00 Partly Cloudy -- 57.0 48.2 72% 57 NA 30.15 M
8:55 pm CDT NE 3.5 10.00 Partly Cloudy -- 61.0 48.2 63% NA NA 30.14 M
7:55 pm CDT N 0.0 10.00 Mostly Cloudy -- 64.0 46.4 52% NA NA 30.12 M
6:55 pm CDT S 4.6 10.00 Mostly Cloudy -- 66.0 46.4 49% NA NA 30.13 M
5:55 pm CDT S 5.8 10.00 Mostly Cloudy -- 64.0 46.4 52% NA NA 30.14 M

Regional Weather Observation


Silver Bay, MN (KBFW)

NULL
52.0 F

Eveleth-Virginia Municipal Airport, MN (KEVM)

Fair
71.0 F

Ely, Ely Municipal Airport, MN (KELO)

Mostly Cloudy
72.0 F

Chisholm-Hibbing Airport, MN (KHIB)

Partly Cloudy
71.0 F

Duluth International Airport, MN (KDLH)

A Few Clouds
67.0 F

Cook Municipal Airport, MN (KCQM)

Partly Cloudy
72.0 F